Simultaneous Nadir Overpasses (SNOs) Predictions

Prediction of SNOs between FY3D and AQUA Satellite Orbit:

Table of predicted SNOs for the next 14.0 days since TLE Epoch: 6/13/2020
Index Date (FY3D) Time (FY3D) Lat,Lon (FY3D) SZA (FY3D ) Date (AQUA) Time (AQUA) Lat,Lon (AQUA) SZA (AQUA ) Distance(km) Time Diff (sec)
1 06/15/2020 18:28:18 62.07, 122.33 89.15 06/15/2020 18:29:04 62.07, 122.36 89.08 1.83 46
2 06/15/2020 19:17:21 -67.76, -64.72 96.73 06/15/2020 19:16:53 -67.76, -64.76 96.69 1.52 28
3 06/18/2020 10:44:30 62.64,-121.29 88.53 06/18/2020 10:45:22 62.64,-121.32 88.49 1.93 52
4 06/18/2020 11:33:53 -67.24, 50.56 96.22 06/18/2020 11:33:30 -67.24, 50.55 96.19 0.80 23
5 06/21/2020 03:01:06 61.93, -5.96 89.27 06/21/2020 03:02:03 61.93, -5.98 89.22 1.51 57
6 06/21/2020 03:50:25 -66.78, 165.94 95.72 06/21/2020 03:50:07 -66.78, 165.93 95.69 0.40 18
7 06/23/2020 19:17:41 61.27, 109.44 90.00 06/23/2020 19:18:43 61.27, 109.42 89.95 1.37 62
8 06/23/2020 20:06:56 -66.36, -78.62 95.22 06/23/2020 20:06:43 -66.36, -78.62 95.20 0.31 13
9 06/26/2020 11:34:15 60.67,-135.10 90.73 06/26/2020 11:35:22 60.66,-135.13 90.67 1.51 67
10 06/26/2020 12:23:25 -66.05, 36.96 94.79 06/26/2020 12:23:17 -66.05, 36.95 94.77 0.50 8




NCC Satellite Simultaneous Nadir Overpasses (SNOs) Prediction Service
